Year,Month,Day,Hour,Minute,Value (Times are PST for temperature in C)
2010,03,28,00,00,9.20
2010,03,28,00,01,9.20
2010,03,28,00,02,9.20
2010,03,28,00,03,9.20
2010,03,28,00,04,9.20
2010,03,28,00,05,9.20
2010,03,28,00,06,9.20
2010,03,28,00,07,9.10
2010,03,28,00,08,9.10
2010,03,28,00,09,9.10
2010,03,28,00,10,9.20
2010,03,28,00,11,9.20
2010,03,28,00,12,9.20
2010,03,28,00,13,9.30
2010,03,28,00,14,9.30
2010,03,28,00,15,9.30
2010,03,28,00,16,9.30
2010,03,28,00,17,9.30
2010,03,28,00,18,9.30
2010,03,28,00,19,9.30
2010,03,28,00,20,9.40
2010,03,28,00,21,9.40
2010,03,28,00,22,9.40
2010,03,28,00,23,9.50
2010,03,28,00,24,9.60
2010,03,28,00,25,9.60
2010,03,28,00,26,9.70
2010,03,28,00,27,9.80
2010,03,28,00,28,9.90
2010,03,28,00,29,10.00
2010,03,28,00,30,10.00
2010,03,28,00,31,10.00
2010,03,28,00,32,10.00
2010,03,28,00,33,10.00
2010,03,28,00,34,10.00
2010,03,28,00,35,9.90
2010,03,28,00,36,9.90
2010,03,28,00,37,9.80
2010,03,28,00,38,9.70
2010,03,28,00,39,9.60
2010,03,28,00,40,9.60
2010,03,28,00,41,9.50
2010,03,28,00,42,9.40
2010,03,28,00,43,9.30
2010,03,28,00,44,9.20
2010,03,28,00,45,9.10
2010,03,28,00,46,9.00
2010,03,28,00,47,8.90
2010,03,28,00,48,8.80
2010,03,28,00,49,8.80
2010,03,28,00,50,8.70
2010,03,28,00,51,8.60
2010,03,28,00,52,8.60
2010,03,28,00,53,8.50
2010,03,28,00,54,8.40
2010,03,28,00,55,8.30
2010,03,28,00,56,8.30
2010,03,28,00,57,8.30
2010,03,28,00,58,8.20
2010,03,28,00,59,8.20
2010,03,28,01,00,8.10
2010,03,28,01,01,8.10
2010,03,28,01,02,8.00
2010,03,28,01,03,8.00
2010,03,28,01,04,7.90
2010,03,28,01,05,7.90
2010,03,28,01,06,7.90
2010,03,28,01,07,7.80
2010,03,28,01,08,7.80
2010,03,28,01,09,7.80
2010,03,28,01,10,7.70
2010,03,28,01,11,7.70
2010,03,28,01,12,7.70
2010,03,28,01,13,7.60
2010,03,28,01,14,7.60
2010,03,28,01,15,7.60
2010,03,28,01,16,7.60
2010,03,28,01,17,7.50
2010,03,28,01,18,7.50
2010,03,28,01,19,7.50
2010,03,28,01,20,7.50
2010,03,28,01,21,7.50
2010,03,28,01,22,7.40
2010,03,28,01,23,7.40
2010,03,28,01,24,7.40
2010,03,28,01,25,7.40
2010,03,28,01,26,7.40
2010,03,28,01,27,7.40
2010,03,28,01,28,7.40
2010,03,28,01,29,7.40
2010,03,28,01,30,7.40
2010,03,28,01,31,7.40
2010,03,28,01,32,7.40
2010,03,28,01,33,7.40
2010,03,28,01,34,7.40
2010,03,28,01,35,7.40
2010,03,28,01,36,7.40
2010,03,28,01,37,7.40
2010,03,28,01,38,7.40
2010,03,28,01,39,7.40
2010,03,28,01,40,7.40
2010,03,28,01,41,7.40
2010,03,28,01,42,7.40
2010,03,28,01,43,7.40
2010,03,28,01,44,7.40
2010,03,28,01,45,7.40
2010,03,28,01,46,7.40
2010,03,28,01,47,7.40
2010,03,28,01,48,7.40
2010,03,28,01,49,7.40
2010,03,28,01,50,7.40
2010,03,28,01,51,7.40
2010,03,28,01,52,7.40
2010,03,28,01,53,7.30
2010,03,28,01,54,7.30
2010,03,28,01,55,7.30
2010,03,28,01,56,7.30
2010,03,28,01,57,7.30
2010,03,28,01,58,7.30
2010,03,28,01,59,7.30
2010,03,28,02,00,7.30
2010,03,28,02,01,7.30
2010,03,28,02,02,7.30
2010,03,28,02,03,7.30
2010,03,28,02,04,7.30
2010,03,28,02,05,7.30
2010,03,28,02,06,7.30
2010,03,28,02,07,7.30
2010,03,28,02,08,7.30
2010,03,28,02,09,7.30
2010,03,28,02,10,7.30
2010,03,28,02,11,7.40
2010,03,28,02,12,7.40
2010,03,28,02,13,7.40
2010,03,28,02,14,7.50
2010,03,28,02,15,7.50
2010,03,28,02,16,7.50
2010,03,28,02,17,7.40
2010,03,28,02,18,7.40
2010,03,28,02,19,7.40
2010,03,28,02,20,7.40
2010,03,28,02,21,7.40
2010,03,28,02,22,7.40
2010,03,28,02,23,7.40
2010,03,28,02,24,7.40
2010,03,28,02,25,7.40
2010,03,28,02,26,7.40
2010,03,28,02,27,7.40
2010,03,28,02,28,7.30
2010,03,28,02,29,7.30
2010,03,28,02,30,7.30
2010,03,28,02,31,7.30
2010,03,28,02,32,7.30
2010,03,28,02,33,7.30
2010,03,28,02,34,7.30
2010,03,28,02,35,7.30
2010,03,28,02,36,7.30
2010,03,28,02,37,7.20
2010,03,28,02,38,7.20
2010,03,28,02,39,7.20
2010,03,28,02,40,7.20
2010,03,28,02,41,7.20
2010,03,28,02,42,7.20
2010,03,28,02,43,7.20
2010,03,28,02,44,7.20
2010,03,28,02,45,7.20
2010,03,28,02,46,7.10
2010,03,28,02,47,7.10
2010,03,28,02,48,7.10
2010,03,28,02,49,7.10
2010,03,28,02,50,7.10
2010,03,28,02,51,7.00
2010,03,28,02,52,7.00
2010,03,28,02,53,7.00
2010,03,28,02,54,6.90
2010,03,28,02,55,6.90
2010,03,28,02,56,6.90
2010,03,28,02,57,6.90
2010,03,28,02,58,6.90
2010,03,28,02,59,6.90
2010,03,28,03,00,6.90
2010,03,28,03,01,6.90
2010,03,28,03,02,6.90
2010,03,28,03,03,6.90
2010,03,28,03,04,7.10
2010,03,28,03,05,7.20
2010,03,28,03,06,7.20
2010,03,28,03,07,7.20
2010,03,28,03,08,7.20
2010,03,28,03,09,7.20
2010,03,28,03,10,7.20
2010,03,28,03,11,7.10
2010,03,28,03,12,7.10
2010,03,28,03,13,7.10
2010,03,28,03,14,7.00
2010,03,28,03,15,7.00
2010,03,28,03,16,6.90
2010,03,28,03,17,6.90
2010,03,28,03,18,6.80
2010,03,28,03,19,6.80
2010,03,28,03,20,6.70
2010,03,28,03,21,6.70
2010,03,28,03,22,6.70
2010,03,28,03,23,6.60
2010,03,28,03,24,6.60
2010,03,28,03,25,6.60
2010,03,28,03,26,6.60
2010,03,28,03,27,6.60
2010,03,28,03,28,6.60
2010,03,28,03,29,6.60
2010,03,28,03,30,6.60
2010,03,28,03,31,6.60
2010,03,28,03,32,6.50
2010,03,28,03,33,6.50
2010,03,28,03,34,6.50
2010,03,28,03,35,6.50
2010,03,28,03,36,6.40
2010,03,28,03,37,6.40
2010,03,28,03,38,6.40
2010,03,28,03,39,6.40
2010,03,28,03,40,6.30
2010,03,28,03,41,6.30
2010,03,28,03,42,6.30
2010,03,28,03,43,6.30
2010,03,28,03,44,6.30
2010,03,28,03,45,6.20
2010,03,28,03,46,6.20
2010,03,28,03,47,6.20
2010,03,28,03,48,6.20
2010,03,28,03,49,6.20
2010,03,28,03,50,6.10
2010,03,28,03,51,6.10
2010,03,28,03,52,6.10
2010,03,28,03,53,6.10
2010,03,28,03,54,6.00
2010,03,28,03,55,6.00
2010,03,28,03,56,5.90
2010,03,28,03,57,5.90
2010,03,28,03,58,5.90
2010,03,28,03,59,5.90
2010,03,28,04,00,5.90
2010,03,28,04,01,5.90
2010,03,28,04,02,5.90
2010,03,28,04,03,5.90
2010,03,28,04,04,5.90
2010,03,28,04,05,5.90
2010,03,28,04,06,5.90
2010,03,28,04,07,5.90
2010,03,28,04,08,6.00
2010,03,28,04,09,6.00
2010,03,28,04,10,6.10
2010,03,28,04,11,6.10
2010,03,28,04,12,6.10
2010,03,28,04,13,6.10
2010,03,28,04,14,6.10
2010,03,28,04,15,6.10
2010,03,28,04,16,6.10
2010,03,28,04,17,6.10
2010,03,28,04,18,6.10
2010,03,28,04,19,6.00
2010,03,28,04,20,6.00
2010,03,28,04,21,6.00
2010,03,28,04,22,5.90
2010,03,28,04,23,5.90
2010,03,28,04,24,5.90
2010,03,28,04,25,5.90
2010,03,28,04,26,5.90
2010,03,28,04,27,5.80
2010,03,28,04,28,5.80
2010,03,28,04,29,5.80
2010,03,28,04,30,5.70
2010,03,28,04,31,5.70
2010,03,28,04,32,5.70
2010,03,28,04,33,5.70
2010,03,28,04,34,5.60
2010,03,28,04,35,5.60
2010,03,28,04,36,5.60
2010,03,28,04,37,5.60
2010,03,28,04,38,5.60
2010,03,28,04,39,5.60
2010,03,28,04,40,5.50
2010,03,28,04,41,5.50
2010,03,28,04,42,5.50
2010,03,28,04,43,5.50
2010,03,28,04,44,5.50
2010,03,28,04,45,5.50
2010,03,28,04,46,5.50
2010,03,28,04,47,5.40
2010,03,28,04,48,5.40
2010,03,28,04,49,5.40
2010,03,28,04,50,5.40
2010,03,28,04,51,5.40
2010,03,28,04,52,5.40
2010,03,28,04,53,5.40
2010,03,28,04,54,5.40
2010,03,28,04,55,5.40
2010,03,28,04,56,5.50
2010,03,28,04,57,5.50
2010,03,28,04,58,5.40
2010,03,28,04,59,5.40
2010,03,28,05,00,5.40
2010,03,28,05,01,5.40
2010,03,28,05,02,5.40
2010,03,28,05,03,5.40
2010,03,28,05,04,5.40
2010,03,28,05,05,5.40
2010,03,28,05,06,5.40
2010,03,28,05,07,5.40
2010,03,28,05,08,5.50
2010,03,28,05,09,5.50
2010,03,28,05,10,5.50
2010,03,28,05,11,5.60
2010,03,28,05,12,5.60
2010,03,28,05,13,5.60
2010,03,28,05,14,5.60
2010,03,28,05,15,5.60
2010,03,28,05,16,5.60
2010,03,28,05,17,5.60
2010,03,28,05,18,5.60
2010,03,28,05,19,5.60
2010,03,28,05,20,5.60
2010,03,28,05,21,5.60
2010,03,28,05,22,5.50
2010,03,28,05,23,5.60
2010,03,28,05,24,5.50
2010,03,28,05,25,5.60
2010,03,28,05,26,5.60
2010,03,28,05,27,5.50
2010,03,28,05,28,5.50
2010,03,28,05,29,5.60
2010,03,28,05,30,5.60
2010,03,28,05,31,5.50
2010,03,28,05,32,5.50
2010,03,28,05,33,5.50
2010,03,28,05,34,5.50
2010,03,28,05,35,5.50
2010,03,28,05,36,5.40
2010,03,28,05,37,5.40
2010,03,28,05,38,5.40
2010,03,28,05,39,5.40
2010,03,28,05,40,5.40
2010,03,28,05,41,5.40
2010,03,28,05,42,5.40
2010,03,28,05,43,5.40
2010,03,28,05,44,5.40
2010,03,28,05,45,5.40
2010,03,28,05,46,5.40
2010,03,28,05,47,5.30
2010,03,28,05,48,5.30
2010,03,28,05,49,5.30
2010,03,28,05,50,5.30
2010,03,28,05,51,5.40
2010,03,28,05,52,5.40
2010,03,28,05,53,5.40
2010,03,28,05,54,5.40
2010,03,28,05,55,5.40
2010,03,28,05,56,5.40
2010,03,28,05,57,5.40
2010,03,28,05,58,5.40
2010,03,28,05,59,5.40
2010,03,28,06,00,5.40
2010,03,28,06,01,5.40
2010,03,28,06,02,5.40
2010,03,28,06,03,5.40
2010,03,28,06,04,5.40
2010,03,28,06,05,5.40
2010,03,28,06,06,5.40
2010,03,28,06,07,5.40
2010,03,28,06,08,5.40
2010,03,28,06,09,5.40
2010,03,28,06,10,5.40
2010,03,28,06,11,5.40
2010,03,28,06,12,5.40
2010,03,28,06,13,5.40
2010,03,28,06,14,5.40
2010,03,28,06,15,5.40
2010,03,28,06,16,5.40
2010,03,28,06,17,5.40
2010,03,28,06,18,5.40
2010,03,28,06,19,5.40
2010,03,28,06,20,5.40
2010,03,28,06,21,5.40
2010,03,28,06,22,5.40
2010,03,28,06,23,5.40
2010,03,28,06,24,5.40
2010,03,28,06,25,5.40
2010,03,28,06,26,5.40
2010,03,28,06,27,5.40
2010,03,28,06,28,5.40
2010,03,28,06,29,5.40
2010,03,28,06,30,5.40
2010,03,28,06,31,5.30
2010,03,28,06,32,5.30
2010,03,28,06,33,5.30
2010,03,28,06,34,5.30
2010,03,28,06,35,5.30
2010,03,28,06,36,5.30
2010,03,28,06,37,5.30
2010,03,28,06,38,5.20
2010,03,28,06,39,5.20
2010,03,28,06,40,5.20
2010,03,28,06,41,5.20
2010,03,28,06,42,5.20
2010,03,28,06,43,5.20
2010,03,28,06,44,5.20
2010,03,28,06,45,5.20
2010,03,28,06,46,5.20
2010,03,28,06,47,5.20
2010,03,28,06,48,5.30
2010,03,28,06,49,5.30
2010,03,28,06,50,5.30
2010,03,28,06,51,5.30
2010,03,28,06,52,5.30
2010,03,28,06,53,5.20
2010,03,28,06,54,5.20
2010,03,28,06,55,5.20
2010,03,28,06,56,5.20
2010,03,28,06,57,5.20
2010,03,28,06,58,5.10
2010,03,28,06,59,5.10
2010,03,28,07,00,5.10
2010,03,28,07,01,5.10
2010,03,28,07,02,5.10
2010,03,28,07,03,5.10
2010,03,28,07,04,5.10
2010,03,28,07,05,5.10
2010,03,28,07,06,5.20
2010,03,28,07,07,5.20
2010,03,28,07,08,5.20
2010,03,28,07,09,5.30
2010,03,28,07,10,5.30
2010,03,28,07,11,5.30
2010,03,28,07,12,5.30
2010,03,28,07,13,5.30
2010,03,28,07,14,5.30
2010,03,28,07,15,5.30
2010,03,28,07,16,5.30
2010,03,28,07,17,5.30
2010,03,28,07,18,5.30
2010,03,28,07,19,5.30
2010,03,28,07,20,5.30
2010,03,28,07,21,5.30
2010,03,28,07,22,5.30
2010,03,28,07,23,5.30
2010,03,28,07,24,5.30
2010,03,28,07,25,5.30
2010,03,28,07,26,5.30
2010,03,28,07,27,5.30
2010,03,28,07,28,5.30
2010,03,28,07,29,5.30
2010,03,28,07,30,5.30
2010,03,28,07,31,5.30
2010,03,28,07,32,5.30
2010,03,28,07,33,5.30
2010,03,28,07,34,5.30
2010,03,28,07,35,5.40
2010,03,28,07,36,5.40
2010,03,28,07,37,5.40
2010,03,28,07,38,5.50
2010,03,28,07,39,5.50
2010,03,28,07,40,5.50
2010,03,28,07,41,5.60
2010,03,28,07,42,5.60
2010,03,28,07,43,5.60
2010,03,28,07,44,5.60
2010,03,28,07,45,5.60
2010,03,28,07,46,5.60
2010,03,28,07,47,5.60
2010,03,28,07,48,5.60
2010,03,28,07,49,5.60
2010,03,28,07,50,5.60
2010,03,28,07,51,5.60
2010,03,28,07,52,5.70
2010,03,28,07,53,5.70
2010,03,28,07,54,5.70
2010,03,28,07,55,5.70
2010,03,28,07,56,5.70
2010,03,28,07,57,5.70
2010,03,28,07,58,5.70
2010,03,28,07,59,5.70
2010,03,28,08,00,5.70
2010,03,28,08,01,5.70
2010,03,28,08,02,5.70
2010,03,28,08,03,5.70
2010,03,28,08,04,5.70
2010,03,28,08,05,5.60
2010,03,28,08,06,5.60
2010,03,28,08,07,5.60
2010,03,28,08,08,5.60
2010,03,28,08,09,5.60
2010,03,28,08,10,5.60
2010,03,28,08,11,5.50
2010,03,28,08,12,5.50
2010,03,28,08,13,5.50
2010,03,28,08,14,5.50
2010,03,28,08,15,5.50
2010,03,28,08,16,5.50
2010,03,28,08,17,5.60
2010,03,28,08,18,5.60
2010,03,28,08,19,5.60
2010,03,28,08,20,5.60
2010,03,28,08,21,5.60
2010,03,28,08,22,5.60
2010,03,28,08,23,5.70
2010,03,28,08,24,5.70
2010,03,28,08,25,5.70
2010,03,28,08,26,5.70
2010,03,28,08,27,5.70
2010,03,28,08,28,5.70
2010,03,28,08,29,5.70
2010,03,28,08,30,5.70
2010,03,28,08,31,5.80
2010,03,28,08,32,5.80
2010,03,28,08,33,5.80
2010,03,28,08,34,5.80
2010,03,28,08,35,5.80
2010,03,28,08,36,5.80
2010,03,28,08,37,5.90
2010,03,28,08,38,5.90
2010,03,28,08,39,6.00
2010,03,28,08,40,6.00
2010,03,28,08,41,6.10
2010,03,28,08,42,6.10
2010,03,28,08,43,6.10
2010,03,28,08,44,6.10
2010,03,28,08,45,6.20
2010,03,28,08,46,6.20
2010,03,28,08,47,6.20
2010,03,28,08,48,6.20
2010,03,28,08,49,6.20
2010,03,28,08,50,6.30
2010,03,28,08,51,6.30
2010,03,28,08,52,6.30
2010,03,28,08,53,6.30
2010,03,28,08,54,6.30
2010,03,28,08,55,6.30
2010,03,28,08,56,6.30
2010,03,28,08,57,6.30
2010,03,28,08,58,6.30
2010,03,28,08,59,6.30
2010,03,28,09,00,6.40
2010,03,28,09,01,6.40
2010,03,28,09,02,6.50
2010,03,28,09,03,6.50
2010,03,28,09,04,6.50
2010,03,28,09,05,6.60
2010,03,28,09,06,6.60
2010,03,28,09,07,6.70
2010,03,28,09,08,6.70
2010,03,28,09,09,6.80
2010,03,28,09,10,6.90
2010,03,28,09,11,6.90
2010,03,28,09,12,7.00
2010,03,28,09,13,7.10
2010,03,28,09,14,7.10
2010,03,28,09,15,7.20
2010,03,28,09,16,7.20
2010,03,28,09,17,7.20
2010,03,28,09,18,7.20
2010,03,28,09,19,7.20
2010,03,28,09,20,7.20
2010,03,28,09,21,7.20
2010,03,28,09,22,7.20
2010,03,28,09,23,7.20
2010,03,28,09,24,7.20
2010,03,28,09,25,7.20
2010,03,28,09,26,7.30
2010,03,28,09,27,7.30
2010,03,28,09,28,7.40
2010,03,28,09,29,7.50
2010,03,28,09,30,7.50
2010,03,28,09,31,7.60
2010,03,28,09,32,7.70
2010,03,28,09,33,7.70
2010,03,28,09,34,7.80
2010,03,28,09,35,7.80
2010,03,28,09,36,7.80
2010,03,28,09,37,7.90
2010,03,28,09,38,8.00
2010,03,28,09,39,8.00
2010,03,28,09,40,8.10
2010,03,28,09,41,8.10
2010,03,28,09,42,8.20
2010,03,28,09,43,8.30
2010,03,28,09,44,8.30
2010,03,28,09,45,8.40
2010,03,28,09,46,8.50
2010,03,28,09,47,8.60
2010,03,28,09,48,8.60
2010,03,28,09,49,8.70
2010,03,28,09,50,8.70
2010,03,28,09,51,8.70
2010,03,28,09,52,8.70
2010,03,28,09,53,8.60
2010,03,28,09,54,8.50
2010,03,28,09,55,8.40
2010,03,28,09,56,8.30
2010,03,28,09,57,8.30
2010,03,28,09,58,8.20
2010,03,28,09,59,8.10
2010,03,28,10,00,8.00
2010,03,28,10,01,7.90
2010,03,28,10,02,7.90
2010,03,28,10,03,7.80
2010,03,28,10,04,7.80
2010,03,28,10,05,7.80
2010,03,28,10,06,7.80
2010,03,28,10,07,7.80
2010,03,28,10,08,7.80
2010,03,28,10,09,7.80
2010,03,28,10,10,7.80
2010,03,28,10,11,7.80
2010,03,28,10,12,7.80
2010,03,28,10,13,7.70
2010,03,28,10,14,7.70
2010,03,28,10,15,7.70
2010,03,28,10,16,7.80
2010,03,28,10,17,7.80
2010,03,28,10,18,7.80
2010,03,28,10,19,7.80
2010,03,28,10,20,7.90
2010,03,28,10,21,7.90
2010,03,28,10,22,7.90
2010,03,28,10,23,7.90
2010,03,28,10,24,7.90
2010,03,28,10,25,8.00
2010,03,28,10,26,8.00
2010,03,28,10,27,8.10
2010,03,28,10,28,8.10
2010,03,28,10,29,8.10
2010,03,28,10,30,8.20
2010,03,28,10,31,8.20
2010,03,28,10,32,8.20
2010,03,28,10,33,8.30
2010,03,28,10,34,8.30
2010,03,28,10,35,8.40
2010,03,28,10,36,8.50
2010,03,28,10,37,8.50
2010,03,28,10,38,8.60
2010,03,28,10,39,8.70
2010,03,28,10,40,8.70
2010,03,28,10,41,8.80
2010,03,28,10,42,8.90
2010,03,28,10,43,9.00
2010,03,28,10,44,9.10
2010,03,28,10,45,9.20
2010,03,28,10,46,9.30
2010,03,28,10,47,9.40
2010,03,28,10,48,9.60
2010,03,28,10,49,9.70
2010,03,28,10,50,9.90
2010,03,28,10,51,10.00
2010,03,28,10,52,10.10
2010,03,28,10,53,10.20
2010,03,28,10,54,10.30
2010,03,28,10,55,10.40
2010,03,28,10,56,10.50
2010,03,28,10,57,10.50
2010,03,28,10,58,10.50
2010,03,28,10,59,10.40
2010,03,28,11,00,10.40
2010,03,28,11,01,10.50
2010,03,28,11,02,10.50
2010,03,28,11,03,10.50
2010,03,28,11,04,10.50
2010,03,28,11,05,10.50
2010,03,28,11,06,10.50
2010,03,28,11,07,10.50
2010,03,28,11,08,10.50
2010,03,28,11,09,10.40
2010,03,28,11,10,10.40
2010,03,28,11,11,10.40
2010,03,28,11,12,10.50
2010,03,28,11,13,10.50
2010,03,28,11,14,10.60
2010,03,28,11,15,10.60
2010,03,28,11,16,10.60
2010,03,28,11,17,10.70
2010,03,28,11,18,10.70
2010,03,28,11,19,10.80
2010,03,28,11,20,10.90
2010,03,28,11,21,11.00
2010,03,28,11,22,11.10
2010,03,28,11,23,11.20
2010,03,28,11,24,11.20
2010,03,28,11,25,11.30
2010,03,28,11,26,11.40
2010,03,28,11,27,11.50
2010,03,28,11,28,11.50
2010,03,28,11,29,11.50
2010,03,28,11,30,11.40
2010,03,28,11,31,11.30
2010,03,28,11,32,11.10
2010,03,28,11,33,11.00
2010,03,28,11,34,10.90
2010,03,28,11,35,10.70
2010,03,28,11,36,10.60
2010,03,28,11,37,10.40
2010,03,28,11,38,10.30
2010,03,28,11,39,10.30
2010,03,28,11,40,10.30
2010,03,28,11,41,10.30
2010,03,28,11,42,10.40
2010,03,28,11,43,10.40
2010,03,28,11,44,10.50
2010,03,28,11,45,10.60
2010,03,28,11,46,10.70
2010,03,28,11,47,10.80
2010,03,28,11,48,10.90
2010,03,28,11,49,11.00
2010,03,28,11,50,11.10
2010,03,28,11,51,11.20
2010,03,28,11,52,11.20
2010,03,28,11,53,11.20
2010,03,28,11,54,11.20
2010,03,28,11,55,11.30
2010,03,28,11,56,11.40
2010,03,28,11,57,11.50
2010,03,28,11,58,11.60
2010,03,28,11,59,11.60
2010,03,28,12,00,11.50
2010,03,28,12,01,11.40
2010,03,28,12,02,11.30
2010,03,28,12,03,11.30
2010,03,28,12,04,11.30
2010,03,28,12,05,11.30
2010,03,28,12,06,11.30
2010,03,28,12,07,11.30
2010,03,28,12,08,11.30
2010,03,28,12,09,11.30
2010,03,28,12,10,11.30
2010,03,28,12,11,11.30
2010,03,28,12,12,11.30
2010,03,28,12,13,11.40
2010,03,28,12,14,11.50
2010,03,28,12,15,11.50
2010,03,28,12,16,11.60
2010,03,28,12,17,11.70
2010,03,28,12,18,11.90
2010,03,28,12,19,12.10
2010,03,28,12,20,12.20
2010,03,28,12,21,12.30
2010,03,28,12,22,12.30
2010,03,28,12,23,12.30
2010,03,28,12,24,12.30
2010,03,28,12,25,12.20
2010,03,28,12,26,12.10
2010,03,28,12,27,11.90
2010,03,28,12,28,11.70
2010,03,28,12,29,11.70
2010,03,28,12,30,11.60
2010,03,28,12,31,11.40
2010,03,28,12,32,11.30
2010,03,28,12,33,11.20
2010,03,28,12,34,11.20
2010,03,28,12,35,11.20
2010,03,28,12,36,11.20
2010,03,28,12,37,11.10
2010,03,28,12,38,11.10
2010,03,28,12,39,11.10
2010,03,28,12,40,11.10
2010,03,28,12,41,11.00
2010,03,28,12,42,11.00
2010,03,28,12,43,10.90
2010,03,28,12,44,10.90
2010,03,28,12,45,11.00
2010,03,28,12,46,11.00
2010,03,28,12,47,11.00
2010,03,28,12,48,10.90
2010,03,28,12,49,10.90
2010,03,28,12,50,10.90
2010,03,28,12,51,10.90
2010,03,28,12,52,10.90
2010,03,28,12,53,10.80
2010,03,28,12,54,10.80
2010,03,28,12,55,10.70
2010,03,28,12,56,10.60
2010,03,28,12,57,10.50
2010,03,28,12,58,10.40
2010,03,28,12,59,10.40
2010,03,28,13,00,10.30
2010,03,28,13,01,10.20
2010,03,28,13,02,10.20
2010,03,28,13,03,10.20
2010,03,28,13,04,10.20
2010,03,28,13,05,10.30
2010,03,28,13,06,10.30
2010,03,28,13,07,10.40
2010,03,28,13,08,10.50
2010,03,28,13,09,10.60
2010,03,28,13,10,10.70
2010,03,28,13,11,10.80
2010,03,28,13,12,10.90
2010,03,28,13,13,10.90
2010,03,28,13,14,11.00
2010,03,28,13,15,11.00
2010,03,28,13,16,11.00
2010,03,28,13,17,11.00
2010,03,28,13,18,10.90
2010,03,28,13,19,10.80
2010,03,28,13,20,10.70
2010,03,28,13,21,10.60
2010,03,28,13,22,10.60
2010,03,28,13,23,10.50
2010,03,28,13,24,10.50
2010,03,28,13,25,10.50
2010,03,28,13,26,10.40
2010,03,28,13,27,10.40
2010,03,28,13,28,10.30
2010,03,28,13,29,10.30
2010,03,28,13,30,10.30
2010,03,28,13,31,10.20
2010,03,28,13,32,10.10
2010,03,28,13,33,10.00
2010,03,28,13,34,9.90
2010,03,28,13,35,9.90
2010,03,28,13,36,9.90
2010,03,28,13,37,9.80
2010,03,28,13,38,9.80
2010,03,28,13,39,9.70
2010,03,28,13,40,9.60
2010,03,28,13,41,9.60
2010,03,28,13,42,9.60
2010,03,28,13,43,9.60
2010,03,28,13,44,9.60
2010,03,28,13,45,9.50
2010,03,28,13,46,9.40
2010,03,28,13,47,9.30
2010,03,28,13,48,9.30
2010,03,28,13,49,9.20
2010,03,28,13,50,9.20
2010,03,28,13,51,9.20
2010,03,28,13,52,9.20
2010,03,28,13,53,9.10
2010,03,28,13,54,9.10
2010,03,28,13,55,9.00
2010,03,28,13,56,9.00
2010,03,28,13,57,8.90
2010,03,28,13,58,8.80
2010,03,28,13,59,8.70
2010,03,28,14,00,8.70
2010,03,28,14,01,8.60
2010,03,28,14,02,8.50
2010,03,28,14,03,8.50
2010,03,28,14,04,8.40
2010,03,28,14,05,8.30
2010,03,28,14,06,8.30
2010,03,28,14,07,8.20
2010,03,28,14,08,8.20
2010,03,28,14,09,8.20
2010,03,28,14,10,8.10
2010,03,28,14,11,8.10
2010,03,28,14,12,8.00
2010,03,28,14,13,8.00
2010,03,28,14,14,7.90
2010,03,28,14,15,7.90
2010,03,28,14,16,7.90
2010,03,28,14,17,7.90
2010,03,28,14,18,7.90
2010,03,28,14,19,7.90
2010,03,28,14,20,7.90
2010,03,28,14,21,7.80
2010,03,28,14,22,7.80
2010,03,28,14,23,7.80
2010,03,28,14,24,7.80
2010,03,28,14,25,7.80
2010,03,28,14,26,7.80
2010,03,28,14,27,7.80
2010,03,28,14,28,7.80
2010,03,28,14,29,7.80
2010,03,28,14,30,7.80
2010,03,28,14,31,7.80
2010,03,28,14,32,7.80
2010,03,28,14,33,7.80
2010,03,28,14,34,7.80
2010,03,28,14,35,7.80
2010,03,28,14,36,7.80
2010,03,28,14,37,7.80
2010,03,28,14,38,7.80
2010,03,28,14,39,7.80
2010,03,28,14,40,7.80
2010,03,28,14,41,7.80
2010,03,28,14,42,7.80
2010,03,28,14,43,7.80
2010,03,28,14,44,7.80
2010,03,28,14,45,7.80
2010,03,28,14,46,7.80
2010,03,28,14,47,7.80
2010,03,28,14,48,7.80
2010,03,28,14,49,7.80
2010,03,28,14,50,7.80
2010,03,28,14,51,7.90
2010,03,28,14,52,7.90
2010,03,28,14,53,8.00
2010,03,28,14,54,8.00
2010,03,28,14,55,8.00
2010,03,28,14,56,8.10
2010,03,28,14,57,8.10
2010,03,28,14,58,8.10
2010,03,28,14,59,8.10
2010,03,28,15,00,8.10
2010,03,28,15,01,8.20
2010,03,28,15,02,8.20
2010,03,28,15,03,8.20
2010,03,28,15,04,8.20
2010,03,28,15,05,8.20
2010,03,28,15,06,8.20
2010,03,28,15,07,8.20
2010,03,28,15,08,8.20
2010,03,28,15,09,8.20
2010,03,28,15,10,8.30
2010,03,28,15,11,8.30
2010,03,28,15,12,8.40
2010,03,28,15,13,8.40
2010,03,28,15,14,8.50
2010,03,28,15,15,8.50
2010,03,28,15,16,8.60
2010,03,28,15,17,8.70
2010,03,28,15,18,8.80
2010,03,28,15,19,8.80
2010,03,28,15,20,8.90
2010,03,28,15,21,9.00
2010,03,28,15,22,9.10
2010,03,28,15,23,9.10
2010,03,28,15,24,9.20
2010,03,28,15,25,9.20
2010,03,28,15,26,9.30
2010,03,28,15,27,9.30
2010,03,28,15,28,9.30
2010,03,28,15,29,9.30
2010,03,28,15,30,9.30
2010,03,28,15,31,9.30
2010,03,28,15,32,9.40
2010,03,28,15,33,9.40
2010,03,28,15,34,9.40
2010,03,28,15,35,9.30
2010,03,28,15,36,9.30
2010,03,28,15,37,9.30
2010,03,28,15,38,9.30
2010,03,28,15,39,9.30
2010,03,28,15,40,9.30
2010,03,28,15,41,9.30
2010,03,28,15,42,9.30
2010,03,28,15,43,9.30
2010,03,28,15,44,9.20
2010,03,28,15,45,9.20
2010,03,28,15,46,9.20
2010,03,28,15,47,9.10
2010,03,28,15,48,9.10
2010,03,28,15,49,9.10
2010,03,28,15,50,9.10
2010,03,28,15,51,9.20
2010,03,28,15,52,9.20
2010,03,28,15,53,9.20
2010,03,28,15,54,9.20
2010,03,28,15,55,9.20
2010,03,28,15,56,9.20
2010,03,28,15,57,9.20
2010,03,28,15,58,9.20
2010,03,28,15,59,9.20
2010,03,28,16,00,9.20
2010,03,28,16,01,9.10
2010,03,28,16,02,9.10
2010,03,28,16,03,9.10
2010,03,28,16,04,9.00
2010,03,28,16,05,9.00
2010,03,28,16,06,8.90
2010,03,28,16,07,8.90
2010,03,28,16,08,8.90
2010,03,28,16,09,8.90
2010,03,28,16,10,8.90
2010,03,28,16,11,8.90
2010,03,28,16,12,8.90
2010,03,28,16,13,8.90
2010,03,28,16,14,8.80
2010,03,28,16,15,8.80
2010,03,28,16,16,8.80
2010,03,28,16,17,8.80
2010,03,28,16,18,8.80
2010,03,28,16,19,8.90
2010,03,28,16,20,8.90
2010,03,28,16,21,8.90
2010,03,28,16,22,8.90
2010,03,28,16,23,8.90
2010,03,28,16,24,8.90
2010,03,28,16,25,8.90
2010,03,28,16,26,8.90
2010,03,28,16,27,8.90
2010,03,28,16,28,9.00
2010,03,28,16,29,9.00
2010,03,28,16,30,9.00
2010,03,28,16,31,9.00
2010,03,28,16,32,9.00
2010,03,28,16,33,9.00
2010,03,28,16,34,9.00
2010,03,28,16,35,9.10
2010,03,28,16,36,9.10
2010,03,28,16,37,9.10
2010,03,28,16,38,9.10
2010,03,28,16,39,9.20
2010,03,28,16,40,9.30
2010,03,28,16,41,9.40
2010,03,28,16,42,9.50
2010,03,28,16,43,9.50
2010,03,28,16,44,9.60
2010,03,28,16,45,9.60
2010,03,28,16,46,9.60
2010,03,28,16,47,9.60
2010,03,28,16,48,9.60
2010,03,28,16,49,9.60
2010,03,28,16,50,9.60
2010,03,28,16,51,9.60
2010,03,28,16,52,9.60
2010,03,28,16,53,9.60
2010,03,28,16,54,9.60
2010,03,28,16,55,9.60
2010,03,28,16,56,9.60
2010,03,28,16,57,9.60
2010,03,28,16,58,9.60
2010,03,28,16,59,9.60
2010,03,28,17,00,9.50
2010,03,28,17,01,9.40
2010,03,28,17,02,9.30
2010,03,28,17,03,9.30
2010,03,28,17,04,9.20
2010,03,28,17,05,9.20
2010,03,28,17,06,9.10
2010,03,28,17,07,9.10
2010,03,28,17,08,9.10
2010,03,28,17,09,9.10
2010,03,28,17,10,9.00
2010,03,28,17,11,9.10
2010,03,28,17,12,9.00
2010,03,28,17,13,9.00
2010,03,28,17,14,8.90
2010,03,28,17,15,8.80
2010,03,28,17,16,8.70
2010,03,28,17,17,8.70
2010,03,28,17,18,8.60
2010,03,28,17,19,8.50
2010,03,28,17,20,8.50
2010,03,28,17,21,8.50
2010,03,28,17,22,8.40
2010,03,28,17,23,8.40
2010,03,28,17,24,8.30
2010,03,28,17,25,8.30
2010,03,28,17,26,8.20
2010,03,28,17,27,8.20
2010,03,28,17,28,8.10
2010,03,28,17,29,8.00
2010,03,28,17,30,8.00
2010,03,28,17,31,7.90
2010,03,28,17,32,7.90
2010,03,28,17,33,7.80
2010,03,28,17,34,7.80
2010,03,28,17,35,7.80
2010,03,28,17,36,7.70
2010,03,28,17,37,7.70
2010,03,28,17,38,7.70
2010,03,28,17,39,7.70
2010,03,28,17,40,7.60
2010,03,28,17,41,7.60
2010,03,28,17,42,7.60
2010,03,28,17,43,7.60
2010,03,28,17,44,7.60
2010,03,28,17,45,7.60
2010,03,28,17,46,7.60
2010,03,28,17,47,7.60
2010,03,28,17,48,7.50
2010,03,28,17,49,7.40
2010,03,28,17,50,7.40
2010,03,28,17,51,7.30
2010,03,28,17,52,7.30
2010,03,28,17,53,7.30
2010,03,28,17,54,7.20
2010,03,28,17,55,7.20
2010,03,28,17,56,7.20
2010,03,28,17,57,7.20
2010,03,28,17,58,7.20
2010,03,28,17,59,7.20